Location: Unspecified
(35.7250°N, 0.0000°E)
Time: 13:55:58
(UTC+00:00)

FO-29 - Visible Passes

Search period start: 18 August 2019 00:00
Search period end: 28 August 2019 00:00
Orbit: 799 x 1322 km, 98.5° (Epoch: 16 August)

Date Brightness Start Highest point End Pass type
(mag) Time Alt. Az. Time Alt. Az. Time Alt. Az.
18 Aug 9.2 02:49:47 67° SSE 02:50:35 88° ENE 02:55:58 10° NNW visible
19 Aug 10.9 01:54:13 25° E 01:55:40 28° ENE 02:00:08 10° NNE visible
19 Aug 10.0 03:40:42 32° W 03:40:42 32° W 03:45:26 10° NW visible
20 Aug 9.2 02:45:08 76° SE 02:45:31 81° ENE 02:50:50 10° N visible
21 Aug 11.0 01:49:33 24° E 01:50:37 25° ENE 01:54:53 10° NNE visible
21 Aug 9.9 03:36:03 33° W 03:36:03 33° W 03:40:24 10° NNW visible
22 Aug 9.3 02:40:28 74° ENE 02:40:28 74° ENE 02:45:41 10° N visible
23 Aug 11.1 01:44:52 22° E 01:45:34 23° ENE 01:49:37 10° NNE visible
23 Aug 9.9 03:31:21 35° WNW 03:31:21 35° WNW 03:35:21 10° NNW visible
24 Aug 9.4 02:35:46 65° NE 02:35:46 65° NE 02:40:32 10° N visible
24 Aug 11.1 04:22:15 10° WNW 04:22:15 10° WNW 04:22:33 10° WNW visible
25 Aug 11.2 01:40:10 21° ENE 01:40:31 21° ENE 01:44:20 10° NNE visible
25 Aug 9.9 03:26:39 35° WNW 03:26:39 35° WNW 03:30:18 10° NNW visible
26 Aug 9.7 02:31:02 55° NE 02:31:02 55° NE 02:35:24 10° N visible
26 Aug 11.1 04:17:31 11° WNW 04:17:31 11° WNW 04:17:56 10° WNW visible
27 Aug 11.4 01:35:25 19° ENE 01:35:29 19° ENE 01:39:03 10° NNE visible
27 Aug 10.0 03:21:54 34° WNW 03:21:54 34° WNW 03:25:15 10° NNW visible
